Location: Haram ta Haram Freeway
(35.0583°N, 51.4202°E)
Time: 12:43:32
(UTC+03:30)

Tiangong - Pass Details

Date: 13 October 2022
Orbit: 386 x 394 km, 41.5° (Epoch: 04 December)

Event Time Altitude Azimuth Distance (km) Brightness Sun altitude
Rises 18:52:50 0° 287° (WNW) 2,279 3.3 -17.3°
Reaches altitude 10° 18:55:08 10° 302° (WNW) 1,428 1.7 -17.7°
Maximum altitude 18:57:52 25° 360° (N) 851 -0.4 -18.3°
Enters shadow 18:58:19 24° 14° (NNE) 873 -0.5 -18.4°
